COSMOS 2251 DEB, 34590

Orbit data source: Space-Track

COSMOS 2251 DEB, 34590 is space debris in LEO originally from a launch on Wed, 16 Jun 1993 UTC launched from the Plesetsk Missile And Space Complex (PKMTR). The debris from Iridium 33, an American commercial communications satellite, has been tracked extensively since its accidental collision with the defunct Russian satellite Cosmos 2251 in 2009. This event, occurring at high speed in low Earth orbit (LEO), generated thousands of pieces of space debris, significantly increasing the risk of further collisions. The Iridium 33 debris cloud has impacted space traffic management and orbital debris mitigation strategies, making it a subject of ongoing study in space situational awareness.

Loading next visibility...
Identifier
34590, 1993-036WC
Orbit
LEO
Country
Flag of CISCIS
Related business
Manufacturer
Unknown
Mission
Spacecraft
Bus & Motor
Unknown
Mass
Unknown
Launch date (UTC)
1993-06-16 (32 years ago)
Launch vehicle
Unknown
Launch site
Plesetsk Missile And Space Complex (PKMTR)
Object type
Payload
Rocket body
Debris
Shape & HBR
Unknown shape, 0.1 m
Radar Cross Section
Small (<0.1 m²)

Expand to show TLE details & history
Last TLE update: 11 hours ago

TLE from 11 hours ago
0 COSMOS 2251 DEB
1 34590U 93036WC  25291.15674873  .00001309  00000-0  30286-3 0  9997
2 34590  74.0437  67.6857 0070104 212.0879 324.9271 14.54716092883127
Epoch: 2025-10-18T03:45Z
TLE epoch observation values (Epoch: 2025-10-18T03:45:43.090Z)
Latitude
3.22502°
Longitude
163.44623°
Altitude
672 km
Speed
7.543 km/s
True Right ascension
16h 27m 04s
True Declination
3° 12' 20"
Sunlit
Object was in daylight at epoch
Visualization orbit readout
Latitude
Unknown
Longitude
Unknown
Altitude
Unknown
Speed
Unknown
Apparent Right ascension
Unknown
Apparent Declination
Unknown
Sunlit
N/A
Visualization observer readout
Local Sidereal Time
09:07:12
Azimuth
Unknown
Elevation
Unknown
Doppler factor
Unknown
Orbital elements
Apogee altitude
757.565 km
Perigee altitude
658.214 km
Semi-major axis
7,086.026 km
Eccentricity
0.00701
Inclination
74.0437°
RAAN
67.6857°
Arg. of periapsis
212.0879°
True anomaly
324.46216°
Mean anomaly
324.9271°
Eccentric anomaly
324.69497°
Mean motion
3.63864 °/min
Orbital period
98.94 mins
BSTAR
0.00030286

Documentation

Showing up to 5 results
|